| time (UTC) | temp C | wind direction | speed KPH | gust KPH | rain 1hr cm | rain 24hr cm | rain mn cm | humidity % | barometer mb |
| 20260904041931 | 16 | 326 | 9.7 | 19.3 | 0.00 | 0.03 | 0.03 | 88 | 1012.5 |
| 20260904041434 | 16 | 282 | 8.0 | 16.1 | 0.00 | 0.03 | 0.03 | 88 | 1012.4 |
| 20260904040921 | 16 | 282 | 9.7 | 12.9 | 0.00 | 0.03 | 0.03 | 88 | 1012.3 |
| 20260904040426 | 16 | 278 | 4.8 | 8.0 | 0.03 | 0.03 | 0.03 | 88 | 1012.3 |
| 20260904035928 | 16 | 215 | 3.2 | 6.4 | 0.03 | 0.03 | 0.03 | 88 | 1012.2 |
| 20260904035434 | 16 | 268 | 1.6 | 3.2 | 0.03 | 0.03 | 0.03 | 88 | 1012.2 |
| 20260904034921 | 16 | 222 | 0.0 | 4.8 | 0.03 | 0.03 | 0.03 | 88 | 1012.2 |
| 20260904034429 | 16 | 215 | 1.6 | 4.8 | 0.03 | 0.03 | 0.03 | 88 | 1012.2 |
| 20260904033935 | 16 | 285 | 3.2 | 6.4 | 0.03 | 0.03 | 0.03 | 88 | 1012.0 |
| 20260904033421 | 16 | 261 | 4.8 | 8.0 | 0.03 | 0.03 | 0.03 | 87 | 1012.0 |
| 20260904032923 | 16 | 275 | 3.2 | 11.3 | 0.03 | 0.03 | 0.03 | 87 | 1012.0 |
| 20260904032425 | 16 | 290 | 6.4 | 11.3 | 0.03 | 0.03 | 0.03 | 87 | 1012.0 |
| 20260904031931 | 16 | 271 | 6.4 | 11.3 | 0.03 | 0.03 | 0.03 | 87 | 1011.9 |
| 20260904031418 | 16 | 212 | 4.8 | 11.3 | 0.03 | 0.03 | 0.03 | 87 | 1011.9 |
| 20260904030928 | 16 | 252 | 4.8 | 11.3 | 0.03 | 0.03 | 0.03 | 87 | 1011.9 |
| 20260904030435 | 16 | 290 | 3.2 | 11.3 | 0.00 | 0.00 | 0.00 | 87 | 1011.8 |
| 20260904025921 | 16 | 283 | 4.8 | 16.1 | 0.00 | 0.00 | 0.00 | 87 | 1011.8 |
| 20260904025424 | 16 | 289 | 6.4 | 19.3 | 0.00 | 0.00 | 0.00 | 87 | 1011.9 |
| 20260904024933 | 16 | 273 | 11.3 | 20.9 | 0.00 | 0.00 | 0.00 | 87 | 1011.9 |
| 20260904024435 | 16 | 329 | 11.3 | 20.9 | 0.00 | 0.00 | 0.00 | 87 | 1012.0 |
| 20260904023950 | 16 | 301 | 11.3 | 22.5 | 0.00 | 0.00 | 0.00 | 87 | 1012.0 |
| 20260904023436 | 16 | 268 | 11.3 | 22.5 | 0.00 | 0.00 | 0.00 | 87 | 1012.0 |
| 20260904022923 | 16 | 283 | 12.9 | 17.7 | 0.00 | 0.00 | 0.00 | 87 | 1012.1 |
| 20260904022431 | 16 | 310 | 9.7 | 22.5 | 0.00 | 0.00 | 0.00 | 86 | 1012.1 |
| 20260904021918 | 16 | 270 | 14.5 | 24.1 | 0.00 | 0.00 | 0.00 | 86 | 1012.1 |
| 20260904021423 | 16 | 284 | 12.9 | 24.1 | 0.00 | 0.00 | 0.00 | 86 | 1012.1 |
| 20260904020929 | 17 | 305 | 12.9 | 24.1 | 0.00 | 0.00 | 0.00 | 86 | 1012.2 |
| 20260904020436 | 17 | 242 | 11.3 | 20.9 | 0.00 | 0.00 | 0.00 | 86 | 1012.1 |
| 20260904015917 | 17 | 274 | 12.9 | 19.3 | 0.00 | 0.00 | 0.00 | 86 | 1012.0 |
| 20260904015425 | 17 | 256 | 12.9 | 19.3 | 0.00 | 0.00 | 0.00 | 86 | 1012.0 |
| 20260904014931 | 17 | 280 | 9.7 | 20.9 | 0.00 | 0.00 | 0.00 | 85 | 1012.1 |
| 20260904014436 | 17 | 273 | 4.8 | 25.7 | 0.00 | 0.00 | 0.00 | 85 | 1012.0 |
| 20260904013953 | 17 | 219 | 11.3 | 25.7 | 0.00 | 0.00 | 0.00 | 85 | 1012.0 |
| 20260904013420 | 17 | 221 | 8.0 | 24.1 | 0.00 | 0.00 | 0.00 | 85 | 1012.1 |
| 20260904012922 | 17 | 238 | 12.9 | 27.4 | 0.00 | 0.00 | 0.00 | 84 | 1012.1 |
| 20260904012430 | 18 | 219 | 14.5 | 27.4 | 0.00 | 0.00 | 0.00 | 84 | 1012.1 |
| 20260904011936 | 18 | 242 | 6.4 | 29.0 | 0.00 | 0.00 | 0.00 | 84 | 1012.0 |
| 20260904011422 | 18 | 276 | 9.7 | 27.4 | 0.00 | 0.00 | 0.00 | 84 | 1012.1 |
| 20260904010929 | 18 | 263 | 12.9 | 27.4 | 0.00 | 0.00 | 0.00 | 83 | 1012.0 |
| 20260904010436 | 18 | 206 | 11.3 | 20.9 | 0.00 | 0.00 | 0.00 | 83 | 1012.1 |
| 20260904005952 | 18 | 277 | 9.7 | 27.4 | 0.00 | 0.00 | 0.00 | 83 | 1012.2 |
| 20260904005436 | 18 | 305 | 16.1 | 27.4 | 0.00 | 0.00 | 0.00 | 82 | 1012.3 |
| 20260904004921 | 18 | 299 | 9.7 | 27.4 | 0.00 | 0.00 | 0.00 | 82 | 1012.3 |
| 20260904004444 | 19 | 230 | 11.3 | 32.2 | 0.00 | 0.00 | 0.00 | 82 | 1012.2 |
| 20260904003931 | 19 | 227 | 11.3 | 30.6 | 0.00 | 0.00 | 0.00 | 82 | 1012.2 |
| 20260904003418 | 19 | 195 | 12.9 | 33.8 | 0.00 | 0.00 | 0.00 | 82 | 1012.2 |
| 20260904002924 | 19 | 210 | 20.9 | 33.8 | 0.00 | 0.00 | 0.00 | 81 | 1012.3 |
| 20260904002428 | 19 | 207 | 12.9 | 30.6 | 0.00 | 0.00 | 0.00 | 81 | 1012.2 |
| 20260904001932 | 19 | 183 | 14.5 | 30.6 | 0.00 | 0.00 | 0.00 | 81 | 1012.3 |
| 20260904001418 | 19 | 194 | 14.5 | 27.4 | 0.00 | 0.00 | 0.00 | 81 | 1012.2 |
| 20260904000944 | 19 | 229 | 9.7 | 30.6 | 0.00 | 0.00 | 0.00 | 81 | 1012.5 |
| 20260904000432 | 19 | 245 | 12.9 | 32.2 | 0.00 | 0.00 | 0.00 | 80 | 1012.4 |
| 20260903235936 | 20 | 219 | 14.5 | 32.2 | 0.00 | 0.00 | 0.00 | 78 | 1012.4 |
| 20260903235424 | 20 | 203 | 6.4 | 25.7 | 0.00 | 0.00 | 0.00 | 77 | 1012.6 |
| 20260903234930 | 20 | 249 | 11.3 | 25.7 | 0.00 | 0.00 | 0.00 | 76 | 1012.5 |
| 20260903234432 | 20 | 214 | 8.0 | 20.9 | 0.00 | 0.00 | 0.00 | 75 | 1012.5 |
| 20260903233916 | 20 | 230 | 12.9 | 30.6 | 0.00 | 0.00 | 0.00 | 75 | 1012.5 |
| 20260903233421 | 20 | 259 | 14.5 | 32.2 | 0.00 | 0.00 | 0.00 | 75 | 1012.5 |
| 20260903232929 | 20 | 242 | 9.7 | 29.0 | 0.00 | 0.00 | 0.00 | 75 | 1012.6 |
| 20260903232435 | 20 | 220 | 14.5 | 29.0 | 0.00 | 0.00 | 0.00 | 75 | 1012.7 |
| 20260903231941 | 20 | 257 | 12.9 | 27.4 | 0.00 | 0.00 | 0.00 | 74 | 1012.6 |
| 20260903231442 | 20 | 249 | 14.5 | 30.6 | 0.00 | 0.00 | 0.00 | 74 | 1012.7 |
| 20260903230926 | 20 | 201 | 16.1 | 30.6 | 0.00 | 0.00 | 0.00 | 74 | 1012.9 |
| 20260903230434 | 21 | 242 | 12.9 | 29.0 | 0.00 | 0.00 | 0.00 | 74 | 1013.0 |
| 20260903225918 | 21 | 230 | 8.0 | 29.0 | 0.00 | 0.00 | 0.00 | 75 | 1013.1 |
| 20260903225426 | 21 | 226 | 12.9 | 27.4 | 0.00 | 0.00 | 0.00 | 74 | 1013.1 |
| 20260903224933 | 21 | 261 | 11.3 | 20.9 | 0.00 | 0.00 | 0.00 | 75 | 1013.1 |
| 20260903224422 | 20 | 268 | 9.7 | 32.2 | 0.00 | 0.00 | 0.00 | 75 | 1013.2 |
| 20260903223929 | 20 | 219 | 19.3 | 32.2 | 0.00 | 0.00 | 0.00 | 75 | 1013.2 |
| 20260903223459 | 20 | 217 | 12.9 | 30.6 | 0.00 | 0.00 | 0.00 | 75 | 1013.4 |
| 20260903222952 | 20 | 212 | 16.1 | 35.4 | 0.00 | 0.00 | 0.00 | 75 | 1013.3 |
| 20260903222436 | 20 | 242 | 14.5 | 35.4 | 0.00 | 0.00 | 0.00 | 74 | 1013.3 |
| 20260903221952 | 21 | 228 | 14.5 | 30.6 | 0.00 | 0.00 | 0.00 | 74 | 1013.4 |
| 20260903221418 | 21 | 218 | 11.3 | 24.1 | 0.00 | 0.00 | 0.00 | 74 | 1013.5 |
| 20260903220927 | 21 | 226 | 9.7 | 24.1 | 0.00 | 0.00 | 0.00 | 74 | 1013.5 |
| 20260903220429 | 21 | 206 | 12.9 | 25.7 | 0.00 | 0.00 | 0.00 | 74 | 1013.6 |
| 20260903215935 | 21 | 306 | 12.9 | 25.7 | 0.00 | 0.00 | 0.00 | 73 | 1013.5 |
| 20260903215451 | 21 | 242 | 12.9 | 24.1 | 0.00 | 0.00 | 0.00 | 74 | 1013.6 |
| 20260903214918 | 21 | 251 | 11.3 | 25.7 | 0.00 | 0.00 | 0.00 | 75 | 1013.7 |
| 20260903214447 | 21 | 242 | 14.5 | 25.7 | 0.00 | 0.00 | 0.00 | 75 | 1013.7 |
| 20260903213937 | 20 | 239 | 8.0 | 27.4 | 0.00 | 0.00 | 0.00 | 76 | 1013.7 |
| 20260903213423 | 20 | 282 | 12.9 | 27.4 | 0.00 | 0.00 | 0.00 | 75 | 1013.7 |
| 20260903212927 | 20 | 213 | 6.4 | 27.4 | 0.00 | 0.00 | 0.00 | 75 | 1013.8 |
| 20260903212434 | 20 | 282 | 12.9 | 27.4 | 0.00 | 0.00 | 0.00 | 75 | 1013.8 |
| 20260903211920 | 20 | 221 | 9.7 | 24.1 | 0.00 | 0.00 | 0.00 | 74 | 1013.9 |
| 20260903211426 | 20 | 256 | 9.7 | 24.1 | 0.00 | 0.00 | 0.00 | 74 | 1013.9 |
| 20260903210932 | 20 | 192 | 11.3 | 27.4 | 0.00 | 0.00 | 0.00 | 73 | 1014.0 |
| 20260903210420 | 21 | 249 | 11.3 | 27.4 | 0.00 | 0.00 | 0.00 | 73 | 1014.0 |
| 20260903205923 | 21 | 194 | 9.7 | 20.9 | 0.00 | 0.00 | 0.00 | 73 | 1014.0 |
| 20260903205425 | 21 | 234 | 11.3 | 20.9 | 0.00 | 0.00 | 0.00 | 73 | 1014.1 |
| 20260903204931 | 21 | 261 | 11.3 | 20.9 | 0.00 | 0.00 | 0.00 | 72 | 1014.0 |
| 20260903204417 | 21 | 227 | 8.0 | 19.3 | 0.00 | 0.00 | 0.00 | 73 | 1014.1 |
| 20260903203944 | 21 | 217 | 8.0 | 29.0 | 0.00 | 0.00 | 0.00 | 73 | 1014.0 |
| 20260903203432 | 20 | 249 | 8.0 | 25.7 | 0.00 | 0.00 | 0.00 | 74 | 1014.1 |
| 20260903202917 | 20 | 235 | 9.7 | 25.7 | 0.00 | 0.00 | 0.00 | 74 | 1014.1 |
| 20260903202426 | 20 | 250 | 11.3 | 24.1 | 0.00 | 0.00 | 0.00 | 75 | 1014.1 |
| 20260903201931 | 20 | 259 | 11.3 | 25.7 | 0.00 | 0.00 | 0.00 | 74 | 1014.0 |
| 20260903201445 | 20 | 278 | 12.9 | 24.1 | 0.00 | 0.00 | 0.00 | 74 | 1014.1 |
| 20260903200932 | 20 | 233 | 11.3 | 29.0 | 0.00 | 0.00 | 0.00 | 74 | 1014.1 |
| 20260903200417 | 20 | 211 | 12.9 | 20.9 | 0.00 | 0.00 | 0.00 | 74 | 1014.1 |
| 20260903195919 | 20 | 251 | 6.4 | 27.4 | 0.00 | 0.00 | 0.00 | 75 | 1014.2 |
| 20260903195424 | 20 | 242 | 16.1 | 27.4 | 0.00 | 0.00 | 0.00 | 74 | 1014.2 |
| 20260903194930 | 20 | 221 | 4.8 | 22.5 | 0.00 | 0.00 | 0.00 | 75 | 1014.2 |
| 20260903194417 | 20 | 240 | 8.0 | 25.7 | 0.00 | 0.00 | 0.00 | 76 | 1014.2 |
| 20260903193923 | 20 | 282 | 11.3 | 24.1 | 0.00 | 0.00 | 0.00 | 75 | 1014.5 |
| 20260903193431 | 20 | 226 | 14.5 | 24.1 | 0.00 | 0.00 | 0.00 | 75 | 1014.4 |
| 20260903192916 | 20 | 94 | 11.3 | 22.5 | 0.00 | 0.00 | 0.00 | 75 | 1014.6 |
| 20260903192425 | 20 | 242 | 12.9 | 20.9 | 0.00 | 0.00 | 0.00 | 74 | 1014.6 |
| 20260903191934 | 20 | 216 | 9.7 | 20.9 | 0.00 | 0.00 | 0.00 | 73 | 1014.7 |
| 20260903191421 | 20 | 242 | 9.7 | 19.3 | 0.00 | 0.00 | 0.00 | 73 | 1014.7 |
| 20260903190927 | 20 | 261 | 12.9 | 25.7 | 0.00 | 0.00 | 0.00 | 73 | 1014.7 |
| 20260903190457 | 20 | 203 | 8.0 | 25.7 | 0.00 | 0.00 | 0.00 | 73 | 1014.7 |
| 20260903185934 | 20 | 230 | 8.0 | 19.3 | 0.00 | 0.00 | 0.00 | 73 | 1014.7 |
| 20260903185420 | 20 | 270 | 8.0 | 20.9 | 0.00 | 0.00 | 0.00 | 73 | 1014.8 |
| 20260903184927 | 20 | 235 | 6.4 | 27.4 | 0.00 | 0.00 | 0.00 | 74 | 1014.9 |
| 20260903184431 | 20 | 203 | 9.7 | 19.3 | 0.00 | 0.00 | 0.00 | 74 | 1014.9 |
| 20260903183936 | 20 | 219 | 8.0 | 19.3 | 0.00 | 0.00 | 0.00 | 74 | 1014.9 |
| 20260903183446 | 20 | 194 | 9.7 | 17.7 | 0.00 | 0.00 | 0.00 | 74 | 1014.8 |
| 20260903182932 | 20 | 215 | 6.4 | 16.1 | 0.00 | 0.00 | 0.00 | 74 | 1014.9 |
| 20260903182439 | 20 | 246 | 9.7 | 20.9 | 0.00 | 0.00 | 0.00 | 74 | 1014.9 |
| 20260903181947 | 19 | 186 | 11.3 | 24.1 | 0.00 | 0.00 | 0.00 | 74 | 1014.9 |
| 20260903181434 | 19 | 177 | 12.9 | 25.7 | 0.00 | 0.00 | 0.00 | 73 | 1014.9 |
| 20260903180919 | 19 | 236 | 14.5 | 25.7 | 0.00 | 0.00 | 0.00 | 73 | 1014.8 |
| 20260903180424 | 19 | 239 | 11.3 | 25.7 | 0.00 | 0.00 | 0.00 | 73 | 1014.7 |
| 20260903175929 | 19 | 216 | 14.5 | 25.7 | 0.00 | 0.00 | 0.00 | 73 | 1014.7 |
| 20260903175435 | 20 | 232 | 12.9 | 27.4 | 0.00 | 0.00 | 0.00 | 73 | 1014.7 |
| 20260903174923 | 20 | 231 | 14.5 | 27.4 | 0.00 | 0.00 | 0.00 | 73 | 1014.7 |
| 20260903174428 | 20 | 213 | 8.0 | 20.9 | 0.00 | 0.00 | 0.00 | 73 | 1014.7 |
| 20260903173932 | 20 | 206 | 9.7 | 17.7 | 0.00 | 0.00 | 0.00 | 74 | 1014.6 |
| 20260903173439 | 19 | 222 | 8.0 | 19.3 | 0.00 | 0.00 | 0.00 | 74 | 1014.6 |
| 20260903172922 | 19 | 209 | 6.4 | 19.3 | 0.00 | 0.00 | 0.00 | 74 | 1014.6 |
| 20260903172425 | 19 | 186 | 4.8 | 22.5 | 0.00 | 0.00 | 0.00 | 74 | 1014.7 |
| 20260903171935 | 19 | 196 | 9.7 | 19.3 | 0.00 | 0.00 | 0.00 | 74 | 1014.7 |
| 20260903171419 | 19 | 207 | 8.0 | 22.5 | 0.00 | 0.00 | 0.00 | 75 | 1014.7 |
| 20260903170924 | 18 | 222 | 8.0 | 22.5 | 0.00 | 0.00 | 0.00 | 75 | 1014.7 |
| 20260903170431 | 18 | 242 | 9.7 | 22.5 | 0.00 | 0.00 | 0.00 | 76 | 1014.8 |
| 20260903165935 | 18 | 219 | 11.3 | 20.9 | 0.00 | 0.00 | 0.00 | 76 | 1015.0 |
| 20260903165419 | 18 | 222 | 4.8 | 20.9 | 0.00 | 0.00 | 0.00 | 76 | 1015.0 |
| 20260903164943 | 18 | 220 | 4.8 | 22.5 | 0.00 | 0.00 | 0.00 | 76 | 1015.0 |
| 20260903164428 | 18 | 218 | 11.3 | 22.5 | 0.00 | 0.00 | 0.00 | 76 | 1014.9 |
| 20260903163936 | 18 | 212 | 11.3 | 22.5 | 0.00 | 0.00 | 0.00 | 76 | 1015.0 |
| 20260903163443 | 18 | 215 | 9.7 | 19.3 | 0.00 | 0.00 | 0.00 | 76 | 1015.1 |
| 20260903162926 | 18 | 222 | 9.7 | 20.9 | 0.00 | 0.00 | 0.00 | 76 | 1015.2 |
| 20260903162432 | 18 | 223 | 6.4 | 14.5 | 0.00 | 0.00 | 0.00 | 77 | 1015.1 |
| 20260903161921 | 18 | 201 | 4.8 | 14.5 | 0.00 | 0.00 | 0.00 | 77 | 1015.2 |
| 20260903161422 | 18 | 185 | 4.8 | 14.5 | 0.00 | 0.00 | 0.00 | 77 | 1015.2 |
| 20260903160920 | 18 | 219 | 8.0 | 16.1 | 0.00 | 0.00 | 0.00 | 77 | 1015.3 |
| 20260903160426 | 18 | 251 | 4.8 | 9.7 | 0.00 | 0.00 | 0.00 | 78 | 1015.2 |
| 20260903155930 | 18 | 177 | 3.2 | 9.7 | 0.00 | 0.00 | 0.00 | 78 | 1015.2 |
| 20260903155417 | 17 | 222 | 4.8 | 9.7 | 0.00 | 0.00 | 0.00 | 78 | 1015.3 |
| 20260903154923 | 17 | 209 | 3.2 | 9.7 | 0.00 | 0.00 | 0.00 | 79 | 1015.3 |
| 20260903154446 | 17 | 225 | 4.8 | 9.7 | 0.00 | 0.00 | 0.00 | 79 | 1015.2 |
| 20260903153931 | 17 | 268 | 3.2 | 9.7 | 0.00 | 0.00 | 0.00 | 80 | 1015.3 |
| 20260903153417 | 17 | 177 | 3.2 | 9.7 | 0.00 | 0.00 | 0.00 | 80 | 1015.2 |
| 20260903152922 | 17 | 171 | 3.2 | 9.7 | 0.00 | 0.00 | 0.00 | 80 | 1015.2 |
| 20260903152430 | 17 | 102 | 3.2 | 9.7 | 0.00 | 0.00 | 0.00 | 81 | 1015.4 |
| 20260903151935 | 17 | 154 | 1.6 | 8.0 | 0.00 | 0.00 | 0.00 | 81 | 1015.2 |
| 20260903151421 | 17 | 256 | 3.2 | 6.4 | 0.00 | 0.00 | 0.00 | 82 | 1015.2 |
| 20260903150926 | 17 | 219 | 1.6 | 8.0 | 0.00 | 0.00 | 0.00 | 82 | 1015.3 |
| 20260903150456 | 17 | 162 | 4.8 | 9.7 | 0.00 | 0.00 | 0.00 | 82 | 1015.2 |
| 20260903145939 | 17 | 247 | 3.2 | 9.7 | 0.00 | 0.00 | 0.00 | 83 | 1015.1 |
| 20260903145427 | 17 | 116 | 1.6 | 9.7 | 0.00 | 0.00 | 0.00 | 84 | 1015.2 |
| 20260903144934 | 17 | 62 | 3.2 | 9.7 | 0.00 | 0.00 | 0.00 | 84 | 1015.1 |
| 20260903144419 | 17 | 45 | 3.2 | 6.4 | 0.00 | 0.00 | 0.00 | 84 | 1015.1 |
| 20260903143925 | 16 | 232 | 3.2 | 6.4 | 0.00 | 0.00 | 0.00 | 85 | 1015.1 |
| 20260903143428 | 16 | 142 | 3.2 | 8.0 | 0.00 | 0.00 | 0.00 | 85 | 1015.1 |
| 20260903142930 | 16 | 222 | 1.6 | 8.0 | 0.00 | 0.00 | 0.00 | 85 | 1015.1 |
| 20260903142418 | 16 | 134 | 3.2 | 8.0 | 0.00 | 0.00 | 0.00 | 85 | 1015.0 |
| 20260903141925 | 16 | 160 | 1.6 | 8.0 | 0.00 | 0.00 | 0.00 | 85 | 1014.9 |
| 20260903141434 | 16 | 242 | 3.2 | 6.4 | 0.00 | 0.00 | 0.00 | 86 | 1014.8 |
| 20260903140919 | 16 | 55 | 3.2 | 8.0 | 0.00 | 0.00 | 0.00 | 85 | 1014.9 |
| 20260903140424 | 16 | 222 | 1.6 | 8.0 | 0.00 | 0.00 | 0.00 | 85 | 1014.8 |
| 20260903135927 | 16 | 137 | 1.6 | 4.8 | 0.00 | 0.00 | 0.00 | 85 | 1014.9 |
| 20260903135431 | 16 | 12 | 1.6 | 11.3 | 0.00 | 0.00 | 0.00 | 85 | 1015.0 |
| 20260903134918 | 16 | 216 | 4.8 | 11.3 | 0.00 | 0.00 | 0.00 | 85 | 1015.0 |
| 20260903134424 | 16 | 246 | 4.8 | 12.9 | 0.00 | 0.00 | 0.00 | 85 | 1014.9 |
| 20260903133932 | 16 | 295 | 6.4 | 12.9 | 0.00 | 0.00 | 0.00 | 86 | 1014.8 |
| 20260903133417 | 16 | 232 | 6.4 | 11.3 | 0.00 | 0.00 | 0.00 | 86 | 1014.9 |
| 20260903132921 | 16 | 177 | 3.2 | 9.7 | 0.00 | 0.00 | 0.00 | 86 | 1014.8 |
| 20260903132426 | 16 | 200 | 4.8 | 14.5 | 0.00 | 0.00 | 0.00 | 86 | 1014.8 |
| 20260903131931 | 16 | 232 | 8.0 | 14.5 | 0.00 | 0.00 | 0.00 | 86 | 1014.7 |
| 20260903131439 | 16 | 205 | 6.4 | 14.5 | 0.00 | 0.00 | 0.00 | 86 | 1014.8 |
| 20260903130925 | 16 | 211 | 4.8 | 12.9 | 0.00 | 0.00 | 0.00 | 86 | 1014.8 |
| 20260903130433 | 16 | 249 | 4.8 | 9.7 | 0.00 | 0.00 | 0.00 | 86 | 1014.8 |
| 20260903125917 | 16 | 207 | 1.6 | 4.8 | 0.00 | 0.00 | 0.00 | 86 | 1014.9 |
| 20260903125424 | 16 | 67 | 1.6 | 4.8 | 0.00 | 0.00 | 0.00 | 86 | 1014.8 |
| 20260903124930 | 16 | 55 | 1.6 | 4.8 | 0.00 | 0.00 | 0.00 | 86 | 1014.7 |
| 20260903124435 | 16 | 209 | 1.6 | 4.8 | 0.00 | 0.00 | 0.00 | 85 | 1014.8 |
| 20260903123952 | 16 | 209 | 3.2 | 6.4 | 0.00 | 0.00 | 0.00 | 85 | 1014.8 |
| 20260903123417 | 16 | 189 | 3.2 | 9.7 | 0.00 | 0.00 | 0.00 | 85 | 1014.9 |
| 20260903122924 | 16 | 214 | 4.8 | 9.7 | 0.00 | 0.00 | 0.00 | 85 | 1014.8 |
| 20260903122431 | 16 | 215 | 1.6 | 6.4 | 0.00 | 0.00 | 0.00 | 85 | 1014.8 |
| 20260903121919 | 16 | 88 | 1.6 | 11.3 | 0.00 | 0.00 | 0.00 | 85 | 1014.9 |
| 20260903121446 | 16 | 212 | 3.2 | 11.3 | 0.00 | 0.00 | 0.00 | 85 | 1015.0 |
| 20260903120930 | 16 | 222 | 4.8 | 9.7 | 0.00 | 0.00 | 0.00 | 85 | 1015.1 |
| 20260903120435 | 16 | 205 | 4.8 | 9.7 | 0.00 | 0.00 | 0.00 | 85 | 1015.2 |
| 20260903115939 | 16 | 226 | 3.2 | 14.5 | 0.00 | 0.00 | 0.00 | 85 | 1015.2 |
| 20260903115455 | 16 | 223 | 6.4 | 14.5 | 0.00 | 0.00 | 0.00 | 85 | 1015.2 |
| 20260903114940 | 16 | 206 | 4.8 | 9.7 | 0.00 | 0.00 | 0.00 | 85 | 1015.2 |
| 20260903114425 | 16 | 196 | 4.8 | 9.7 | 0.00 | 0.00 | 0.00 | 85 | 1015.3 |
| 20260903113927 | 16 | 202 | 4.8 | 9.7 | 0.00 | 0.00 | 0.00 | 85 | 1015.3 |
| 20260903113432 | 16 | 222 | 6.4 | 9.7 | 0.00 | 0.00 | 0.00 | 85 | 1015.4 |
| 20260903112919 | 16 | 210 | 3.2 | 11.3 | 0.00 | 0.00 | 0.00 | 85 | 1015.4 |
| 20260903112427 | 16 | 205 | 4.8 | 9.7 | 0.00 | 0.00 | 0.00 | 85 | 1015.4 |
| 20260903111933 | 16 | 214 | 3.2 | 9.7 | 0.00 | 0.00 | 0.00 | 85 | 1015.5 |
| 20260903111421 | 16 | 151 | 4.8 | 11.3 | 0.00 | 0.00 | 0.00 | 85 | 1015.6 |
| 20260903110926 | 16 | 268 | 6.4 | 11.3 | 0.00 | 0.00 | 0.00 | 85 | 1015.6 |
| 20260903110432 | 16 | 200 | 4.8 | 14.5 | 0.00 | 0.00 | 0.00 | 85 | 1015.6 |
| 20260903105934 | 16 | 219 | 9.7 | 16.1 | 0.00 | 0.00 | 0.00 | 85 | 1015.7 |
| 20260903105420 | 16 | 226 | 8.0 | 14.5 | 0.00 | 0.00 | 0.00 | 85 | 1015.7 |
| 20260903104930 | 16 | 232 | 8.0 | 12.9 | 0.00 | 0.00 | 0.00 | 85 | 1015.8 |
| 20260903104417 | 16 | 215 | 9.7 | 14.5 | 0.00 | 0.00 | 0.00 | 85 | 1015.7 |
| 20260903103924 | 16 | 164 | 8.0 | 14.5 | 0.00 | 0.00 | 0.00 | 85 | 1015.7 |
| 20260903103429 | 16 | 177 | 8.0 | 14.5 | 0.00 | 0.00 | 0.00 | 85 | 1015.6 |
| 20260903102934 | 16 | 214 | 3.2 | 11.3 | 0.00 | 0.00 | 0.00 | 85 | 1015.7 |
| 20260903102420 | 16 | 216 | 3.2 | 11.3 | 0.00 | 0.00 | 0.00 | 85 | 1015.7 |
| 20260903101924 | 16 | 219 | 3.2 | 11.3 | 0.00 | 0.00 | 0.00 | 85 | 1015.8 |
| 20260903101431 | 16 | 202 | 8.0 | 11.3 | 0.00 | 0.00 | 0.00 | 85 | 1015.9 |
| 20260903100919 | 16 | 206 | 4.8 | 11.3 | 0.00 | 0.00 | 0.00 | 85 | 1015.8 |
| 20260903100453 | 16 | 189 | 6.4 | 11.3 | 0.00 | 0.00 | 0.00 | 85 | 1015.9 |
| 20260903095919 | 16 | 339 | 3.2 | 9.7 | 0.00 | 0.00 | 0.00 | 85 | 1015.8 |
| 20260903095425 | 16 | 212 | 6.4 | 11.3 | 0.00 | 0.00 | 0.00 | 85 | 1015.9 |
| 20260903094933 | 16 | 200 | 6.4 | 11.3 | 0.00 | 0.00 | 0.00 | 85 | 1016.0 |
| 20260903094436 | 16 | 196 | 6.4 | 11.3 | 0.00 | 0.00 | 0.00 | 85 | 1016.0 |
| 20260903093952 | 16 | 239 | 4.8 | 9.7 | 0.00 | 0.00 | 0.00 | 85 | 1016.0 |
| 20260903093417 | 16 | 177 | 4.8 | 8.0 | 0.00 | 0.00 | 0.00 | 85 | 1016.1 |
| 20260903092921 | 16 | 268 | 3.2 | 4.8 | 0.00 | 0.00 | 0.00 | 85 | 1016.1 |
| 20260903092424 | 16 | 205 | 3.2 | 4.8 | 0.00 | 0.00 | 0.00 | 85 | 1016.1 |
| 20260903091930 | 16 | 268 | 1.6 | 6.4 | 0.00 | 0.00 | 0.00 | 85 | 1016.2 |
| 20260903091436 | 16 | 192 | 1.6 | 9.7 | 0.00 | 0.00 | 0.00 | 85 | 1016.2 |
| 20260903090920 | 16 | 235 | 6.4 | 9.7 | 0.00 | 0.00 | 0.00 | 85 | 1016.3 |
| 20260903090457 | 16 | 268 | 3.2 | 9.7 | 0.00 | 0.00 | 0.00 | 85 | 1016.3 |
| 20260903085919 | 16 | 218 | 6.4 | 9.7 | 0.00 | 0.00 | 0.00 | 85 | 1016.3 |
| 20260903085428 | 16 | 217 | 4.8 | 11.3 | 0.00 | 0.00 | 0.00 | 85 | 1016.3 |
| 20260903084935 | 16 | 198 | 6.4 | 11.3 | 0.00 | 0.00 | 0.00 | 85 | 1016.3 |
| 20260903084421 | 16 | 222 | 3.2 | 11.3 | 0.00 | 0.00 | 0.00 | 85 | 1016.3 |
| 20260903083926 | 16 | 251 | 4.8 | 14.5 | 0.00 | 0.00 | 0.00 | 85 | 1016.3 |
| 20260903083457 | 16 | 203 | 4.8 | 14.5 | 0.00 | 0.00 | 0.00 | 85 | 1016.2 |
| 20260903082923 | 16 | 247 | 8.0 | 12.9 | 0.00 | 0.00 | 0.00 | 85 | 1016.3 |
| 20260903082431 | 16 | 231 | 4.8 | 8.0 | 0.00 | 0.00 | 0.00 | 85 | 1016.3 |
| 20260903081917 | 16 | 203 | 3.2 | 9.7 | 0.00 | 0.00 | 0.00 | 85 | 1016.4 |
| 20260903081421 | 16 | 226 | 4.8 | 9.7 | 0.00 | 0.00 | 0.00 | 85 | 1016.4 |
| 20260903080929 | 16 | 36 | 4.8 | 9.7 | 0.00 | 0.00 | 0.00 | 85 | 1016.3 |
| 20260903080418 | 16 | 268 | 4.8 | 9.7 | 0.00 | 0.00 | 0.00 | 85 | 1016.4 |
| 20260903075924 | 16 | 268 | 1.6 | 9.7 | 0.00 | 0.00 | 0.00 | 85 | 1016.4 |
| 20260903075428 | 16 | 268 | 3.2 | 9.7 | 0.00 | 0.00 | 0.00 | 85 | 1016.4 |
| 20260903074934 | 16 | 289 | 4.8 | 8.0 | 0.00 | 0.00 | 0.00 | 85 | 1016.4 |
| 20260903074421 | 16 | 278 | 1.6 | 8.0 | 0.00 | 0.00 | 0.00 | 85 | 1016.3 |
| 20260903073926 | 16 | 273 | 3.2 | 9.7 | 0.00 | 0.00 | 0.00 | 85 | 1016.2 |
| 20260903073434 | 16 | 233 | 3.2 | 9.7 | 0.00 | 0.00 | 0.00 | 85 | 1016.2 |
| 20260903072918 | 16 | 252 | 4.8 | 8.0 | 0.00 | 0.00 | 0.00 | 85 | 1016.3 |
| 20260903072427 | 16 | 134 | 3.2 | 11.3 | 0.00 | 0.00 | 0.00 | 85 | 1016.4 |
| 20260903071931 | 16 | 294 | 3.2 | 11.3 | 0.00 | 0.00 | 0.00 | 85 | 1016.3 |
| 20260903071417 | 16 | 217 | 6.4 | 9.7 | 0.00 | 0.00 | 0.00 | 85 | 1016.2 |
| 20260903070924 | 16 | 196 | 3.2 | 8.0 | 0.00 | 0.00 | 0.00 | 85 | 1016.3 |
| 20260903070429 | 16 | 209 | 4.8 | 11.3 | 0.00 | 0.00 | 0.00 | 84 | 1016.2 |
| 20260903065928 | 16 | 211 | 6.4 | 16.1 | 0.00 | 0.00 | 0.00 | 84 | 1016.2 |
| 20260903065434 | 16 | 230 | 8.0 | 16.1 | 0.00 | 0.00 | 0.00 | 84 | 1016.2 |
| 20260903064922 | 16 | 271 | 8.0 | 14.5 | 0.00 | 0.00 | 0.00 | 84 | 1016.2 |
| 20260903064425 | 16 | 239 | 4.8 | 11.3 | 0.00 | 0.00 | 0.00 | 84 | 1016.2 |
| 20260903063931 | 16 | 249 | 6.4 | 11.3 | 0.00 | 0.00 | 0.00 | 84 | 1016.3 |
| 20260903063437 | 16 | 263 | 6.4 | 14.5 | 0.00 | 0.00 | 0.00 | 84 | 1016.3 |
| 20260903062921 | 16 | 235 | 6.4 | 16.1 | 0.00 | 0.00 | 0.00 | 84 | 1016.4 |
| 20260903062456 | 16 | 230 | 9.7 | 16.1 | 0.00 | 0.00 | 0.00 | 84 | 1016.3 |
| 20260903061922 | 16 | 249 | 9.7 | 17.7 | 0.00 | 0.00 | 0.00 | 84 | 1016.4 |
| 20260903061431 | 16 | 258 | 11.3 | 17.7 | 0.00 | 0.00 | 0.00 | 84 | 1016.4 |
| 20260903060919 | 16 | 256 | 8.0 | 22.5 | 0.00 | 0.00 | 0.00 | 84 | 1016.4 |
| 20260903060423 | 16 | 221 | 6.4 | 22.5 | 0.00 | 0.00 | 0.00 | 84 | 1016.5 |
| 20260903055929 | 16 | 197 | 11.3 | 22.5 | 0.00 | 0.00 | 0.00 | 84 | 1016.5 |
| 20260903055434 | 16 | 273 | 8.0 | 22.5 | 0.00 | 0.00 | 0.00 | 84 | 1016.4 |
| 20260903054943 | 16 | 303 | 9.7 | 24.1 | 0.00 | 0.00 | 0.00 | 84 | 1016.5 |
| 20260903054429 | 16 | 268 | 11.3 | 25.7 | 0.00 | 0.00 | 0.00 | 84 | 1016.5 |
| 20260903053936 | 16 | 247 | 8.0 | 25.7 | 0.00 | 0.00 | 0.00 | 84 | 1016.6 |
| 20260903053422 | 16 | 273 | 8.0 | 20.9 | 0.00 | 0.00 | 0.00 | 84 | 1016.7 |
| 20260903052944 | 16 | 254 | 8.0 | 24.1 | 0.00 | 0.00 | 0.00 | 83 | 1016.6 |
| 20260903052432 | 16 | 264 | 8.0 | 24.1 | 0.00 | 0.00 | 0.00 | 83 | 1016.6 |
| 20260903051918 | 16 | 263 | 12.9 | 19.3 | 0.00 | 0.00 | 0.00 | 83 | 1016.6 |
| 20260903051423 | 16 | 270 | 8.0 | 19.3 | 0.00 | 0.00 | 0.00 | 83 | 1016.7 |
| 20260903050930 | 16 | 244 | 8.0 | 20.9 | 0.00 | 0.00 | 0.00 | 83 | 1016.7 |
| 20260903050418 | 16 | 263 | 9.7 | 20.9 | 0.00 | 0.00 | 0.00 | 83 | 1016.7 |
| 20260903045923 | 16 | 217 | 9.7 | 19.3 | 0.00 | 0.00 | 0.00 | 83 | 1016.8 |
| 20260903045428 | 16 | 194 | 4.8 | 14.5 | 0.00 | 0.00 | 0.00 | 83 | 1016.8 |
| 20260903044935 | 16 | 134 | 4.8 | 12.9 | 0.00 | 0.00 | 0.00 | 83 | 1016.7 |
| 20260903044422 | 16 | 232 | 4.8 | 12.9 | 0.00 | 0.00 | 0.00 | 83 | 1016.6 |
| 20260903043929 | 16 | 252 | 4.8 | 19.3 | 0.00 | 0.00 | 0.00 | 83 | 1016.7 |
| 20260903043435 | 16 | 205 | 9.7 | 24.1 | 0.00 | 0.00 | 0.00 | 83 | 1016.6 |
| 20260903042952 | 16 | 216 | 11.3 | 24.1 | 0.00 | 0.00 | 0.00 | 83 | 1016.5 |
| 20260903042420 | 16 | 252 | 9.7 | 25.7 | 0.00 | 0.00 | 0.00 | 83 | 1016.4 |